Terminal Aerodrome Forecast
Issued by NWS Twin Cities, MN

Home | Current Version | Previous Version | Text Only | Print | Product List | Glossary Off
Versions: 1 2 3 4 5 6 7 8 9 10 11 12 13 14 15 16 17 18 19 20 21 22 23 24

000
FTUS43 KMPX 281400 AAA
TAFMSP
TAF AMD
KMSP 281448Z 2815/2918 34008KT P6SM OVC070
     FM281900 33009KT P6SM SCT070
     FM290100 31005KT P6SM SCT250=

USA.gov is the U.S. government's official web portal to all federal, state and local government web resources and services.